This is the latest recevied weather packets stored in our database for station/object WX2P-13. If no packets are shown the sender has not sent any weather packets the latest 10 day(s).
| Time | Temp. | Humidity | Pressure | Rain* | Wind** | Luminosity | Snow |
|---|---|---|---|---|---|---|---|
| 1777729008 | 25.56° C | 85% | 1011.3 hPa | 0 mm | - | 127 W/m² | - |
| 1777728705 | 25° C | 85% | 1011.2 hPa | 0 mm | - | 133 W/m² | - |
| 1777728401 | 25° C | 86% | 1011.1 hPa | 0 mm | - | 131 W/m² | - |
| 1777728099 | 25° C | 85% | 1011.1 hPa | 0 mm | - | 105 W/m² | - |
| 1777727796 | 25° C | 86% | 1011 hPa | 0 mm | - | 98 W/m² | - |
| 1777727493 | 25° C | 85% | 1011.2 hPa | 0 mm | - | 88 W/m² | - |
| 1777727190 | 25° C | 85% | 1011 hPa | 0 mm | - | 81 W/m² | - |
| 1777726584 | 25° C | 85% | 1010.7 hPa | 0 mm | - | 101 W/m² | - |
| 1777726282 | 25.56° C | 85% | 1010.7 hPa | 0 mm | - | 193 W/m² | - |
| 1777725978 | 25° C | 87% | 1010.7 hPa | 0 mm | - | 116 W/m² | - |
| 1777725675 | 23.89° C | 89% | 1010.5 hPa | 0 mm | - | 94 W/m² | - |
| 1777725374 | 23.33° C | 92% | 1010.5 hPa | 0 mm | - | 95 W/m² | - |
| 1777725070 | 23.33° C | 93% | 1010.4 hPa | 0 mm | - | 76 W/m² | - |
| 1777724767 | 22.78° C | 94% | 1010.2 hPa | 0 mm | - | 91 W/m² | - |
| 1777724463 | 22.78° C | 95% | 1010.1 hPa | 0 mm | - | 73 W/m² | - |
| 1777724161 | 22.22° C | 96% | 1010.1 hPa | 0 mm | - | 69 W/m² | - |
| 1777723859 | 22.22° C | 97% | 1010.2 hPa | 0 mm | - | 57 W/m² | - |
| 1777723554 | 21.67° C | 97% | 1010 hPa | 0 mm | - | 44 W/m² | - |
| 1777723252 | 21.67° C | 98% | 1009.9 hPa | 0 mm | - | 45 W/m² | - |
| 1777722039 | 21.11° C | 98% | 1010 hPa | 0 mm | - | 34 W/m² | - |
| 1777721737 | 21.11° C | 98% | 1010.1 hPa | 0 mm | - | 30 W/m² | - |
| 1777721435 | 20.56° C | 98% | 1010.2 hPa | 0 mm | - | 29 W/m² | - |
| 1777721132 | 20.56° C | 98% | 1010 hPa | 0 mm | - | 26 W/m² | - |
| 1777720830 | 20.56° C | 98% | 1009.6 hPa | 0 mm | - | 17 W/m² | - |
| 1777720527 | 20.56° C | 98% | 1010.1 hPa | 0 mm | - | 14 W/m² | - |
* Rain latest hour (hover to see other rain measurements)
** Current wind speed in m/s (hover to see current wind gust speed)